Theta_e
314 314 315 315 316 315 314 311 311 313 313 314 314 313 315 316 315 313 314 313 315 312 312 311 312 312 311 312 312 312 315 316 317 314 313 313 314 315 315 315 315 315 318 315 314 316 317 314 312 312 312 314 314 314 312 312 312 313 313 311 314 309 308 309 309 307 305 306 304 304 305 306 309 313 307 307 308 308 309 309 310 311 310 310 310
312 313 314 315 315 315 313 311 315 312 313 313 314 314 314 314 315 314 313 313 314 313 314 311 310 312 312 312 312 313 314 314 316 314 314 315 315 315 315 315 315 314 317 316 317 313 313 314 313 313 313 312 314 314 315 317 315 310 310 309 309 311 308 309 310 306 305 304 302 302 305 305 308 309 306 307 307 308 308 309 310 310 310 310 310
309 313 314 315 315 315 313 312 312 312 313 314 314 313 313 312 314 314 314 314 314 314 312 312 311 314 314 314 314 314 314 315 315 316 317 316 314 314 316 315 315 314 314 317 316 314 313 313 313 313 312 314 315 313 311 311 310 311 309 309 309 307 310 310 310 307 306 305 302 303 300 299 305 304 304 306 306 307 308 308 311 310 310 310 310
309 311 313 314 314 313 311 311 312 312 314 312 313 313 313 314 311 313 315 314 314 315 320 313 315 315 316 316 315 316 316 321 317 315 314 315 315 314 314 315 315 314 314 312 316 315 314 313 313 312 313 313 312 312 311 311 311 311 310 310 308 307 305 307 312 307 307 305 302 301 300 298 297 300 300 304 304 306 307 308 309 310 310 310 311
310 311 313 313 312 312 312 313 311 312 313 313 314 314 315 313 312 312 314 315 314 319 320 316 319 317 314 316 315 315 314 310 310 312 312 315 319 316 315 315 314 314 315 314 315 315 314 314 313 313 312 312 312 311 311 312 311 310 309 309 308 308 306 305 308 308 306 308 305 303 300 298 297 300 301 302 304 307 308 308 310 310 309 310 309
312 312 313 315 314 312 311 312 311 312 313 313 314 315 315 314 312 310 312 313 315 314 317 318 319 316 314 313 312 311 311 310 310 310 312 312 312 314 315 316 315 315 314 314 314 317 314 314 313 313 313 313 313 312 312 311 311 311 310 309 309 307 308 307 306 310 312 312 305 306 306 302 301 302 300 298 305 307 306 308 309 309 309 309 309
312 313 313 314 314 312 311 311 312 312 313 314 313 314 315 315 314 311 312 313 315 315 315 320 314 313 313 313 312 312 312 312 309 309 310 311 312 312 314 315 315 315 316 315 315 315 316 314 313 313 313 312 316 313 311 311 311 310 312 310 309 312 307 307 306 306 306 307 308 307 307 308 304 302 299 299 298 303 306 307 308 309 309 309 309
312 313 314 315 315 314 312 312 312 313 314 314 313 313 315 316 315 314 313 317 315 315 313 317 315 312 311 311 314 311 311 313 312 313 313 315 315 316 315 314 314 314 315 314 314 315 317 315 313 313 312 312 316 313 312 311 311 311 314 310 307 311 308 308 307 305 306 306 309 307 307 309 305 303 303 301 299 297 301 306 304 307 308 309 309
313 313 314 315 315 315 314 313 314 313 314 314 314 314 314 315 317 315 314 315 315 315 316 313 318 313 312 312 311 315 313 313 314 318 319 318 316 317 314 314 314 314 314 315 315 315 318 318 314 312 312 312 319 314 311 311 311 310 308 307 307 308 309 309 307 306 304 306 306 305 304 304 303 302 301 302 302 300 300 301 303 306 306 308 309
313 314 315 316 316 316 316 315 314 314 314 316 314 314 313 314 316 315 315 315 316 315 317 315 314 318 312 311 312 312 313 314 314 315 315 314 314 315 315 314 314 315 315 315 315 316 314 317 315 312 313 313 319 314 312 311 310 309 309 308 309 310 309 310 307 306 306 307 306 305 305 303 303 302 301 300 301 301 300 300 302 301 301 305 308
313 313 314 316 317 317 315 315 315 314 314 315 314 314 314 314 315 315 316 316 317 316 315 316 314 314 314 313 312 312 313 312 312 313 314 314 314 315 315 315 314 314 314 316 315 315 314 315 316 313 314 317 318 314 312 312 311 309 308 308 310 310 309 309 312 312 309 308 306 304 305 304 303 301 302 301 302 301 300 301 302 303 303 302 307
313 313 313 314 315 315 315 315 315 315 315 315 315 314 315 314 314 315 315 315 315 316 315 315 314 313 314 313 313 313 313 314 313 314 314 315 315 314 314 313 314 314 314 314 315 315 315 315 316 315 315 314 315 314 313 312 311 309 309 309 310 310 310 312 309 308 308 308 307 305 305 305 303 302 302 303 302 302 301 301 301 303 303 304 306
312 313 313 313 315 315 315 316 315 315 316 316 316 315 315 315 314 314 314 315 315 315 315 315 314 314 313 313 313 314 313 313 313 313 314 313 313 313 313 313 313 313 314 314 315 315 315 315 314 314 314 315 315 313 313 312 311 310 309 309 310 310 311 310 309 309 309 308 308 308 306 304 304 304 303 303 302 303 303 301 303 303 301 302 304
313 313 313 313 315 316 316 316 316 317 317 317 317 317 316 316 315 314 315 315 315 315 315 314 314 315 314 314 313 314 313 313 312 312 313 313 313 313 314 314 314 314 314 314 316 316 316 316 316 316 315 315 315 313 313 312 311 310 310 310 310 311 310 310 310 310 309 309 308 307 306 306 305 304 303 302 302 303 303 303 302 301 301 302 302
312 312 313 313 315 316 317 317 317 317 318 318 318 318 316 316 315 316 315 315 314 315 315 315 315 315 314 314 314 313 313 313 313 314 313 313 313 313 313 313 313 314 314 315 317 316 316 315 315 315 315 314 314 314 314 313 312 311 311 311 312 312 311 312 311 310 310 310 308 307 307 306 306 304 302 303 304 304 304 305 303 300 300 299 301
312 312 313 313 315 316 317 317 318 318 318 319 319 319 317 317 316 316 317 317 315 316 315 315 315 315 314 314 314 315 317 316 315 316 315 314 314 314 314 313 314 314 314 315 315 316 316 315 316 316 316 314 314 314 313 313 312 311 310 311 311 313 312 311 311 310 311 311 309 308 306 307 306 305 304 305 305 305 305 305 304 302 299 297 301
312 312 313 314 315 316 318 318 318 319 318 319 319 320 319 318 317 316 317 317 316 316 316 316 315 314 314 314 314 314 314 315 315 315 315 315 315 314 314 315 315 314 314 315 315 315 315 315 315 315 315 314 313 313 313 313 312 311 311 311 310 310 312 311 311 311 311 311 309 307 307 307 307 307 308 308 308 307 306 305 304 302 302 300 299
313 313 314 315 316 317 318 319 319 319 320 320 320 320 320 319 318 317 317 316 316 315 316 316 315 315 314 314 313 314 314 314 315 315 315 315 315 315 315 315 315 316 316 316 316 315 315 318 316 314 314 314 313 313 314 314 313 312 312 311 311 310 310 311 312 311 310 310 310 308 308 309 307 307 306 307 308 309 306 305 304 303 303 303 301
311 312 313 314 316 317 318 319 320 320 321 321 321 321 320 319 318 318 317 317 317 316 316 317 316 316 316 316 315 314 314 314 314 315 315 315 315 315 315 315 316 316 316 316 315 315 316 315 315 315 315 314 314 314 314 314 313 312 313 312 311 310 310 310 310 310 310 309 308 308 307 306 306 307 307 308 309 308 306 305 304 303 303 304 301
311 312 313 315 317 318 319 319 320 320 320 321 320 321 320 320 319 319 318 317 317 316 317 316 317 317 317 317 316 316 316 315 315 315 315 315 315 315 316 315 316 316 316 316 315 315 315 315 316 316 316 315 314 314 313 313 313 312 312 312 312 311 310 310 309 309 309 308 307 306 306 306 308 307 307 307 307 307 306 305 303 303 302 302 302
311 313 314 315 317 318 319 320 321 321 322 321 321 321 321 321 320 320 319 318 318 318 317 317 318 317 318 317 317 317 317 317 316 316 316 316 316 317 317 317 317 316 316 316 316 316 316 316 316 316 316 315 315 315 314 313 312 312 312 312 312 310 309 308 308 308 307 307 306 305 304 306 307 307 308 307 306 305 305 305 304 303 302 302 302
312 313 314 315 317 318 320 321 321 321 321 321 321 321 321 321 322 321 321 321 320 320 319 319 318 319 318 318 318 318 318 317 317 317 317 317 317 317 318 318 317 317 317 317 317 317 316 317 316 315 315 315 315 315 314 313 312 312 312 312 311 310 308 307 307 307 308 307 306 304 305 307 307 307 307 306 305 305 306 305 304 302 302 302 302
312 313 314 315 317 318 320 321 321 322 321 322 321 321 321 322 322 322 321 322 323 323 322 321 320 319 319 319 319 318 318 318 317 318 317 318 318 318 318 317 317 317 318 317 317 317 317 316 315 315 315 315 315 315 315 314 313 313 312 312 312 311 309 307 307 307 308 307 304 305 304 306 307 307 306 306 305 305 305 305 304 303 302 303 303
313 313 315 315 316 318 320 321 321 321 321 321 322 322 322 322 322 322 322 323 323 323 323 322 321 321 321 320 319 319 318 318 318 318 318 318 319 318 319 317 317 317 317 317 317 317 316 316 315 315 315 316 316 315 314 314 313 313 313 313 312 310 308 308 307 308 307 306 304 303 303 305 307 306 305 305 305 305 305 305 303 303 304 304 305
311 313 314 316 317 318 319 321 321 322 322 321 322 322 322 322 322 322 323 323 323 324 323 323 323 322 321 320 320 319 319 319 318 319 318 319 319 318 318 318 317 317 317 317 317 317 316 316 315 315 315 315 315 315 315 314 314 313 313 313 312 310 308 307 308 307 309 306 304 302 302 305 306 305 305 304 305 305 304 303 303 304 305 305 306
312 312 314 316 317 318 319 320 322 322 323 322 322 322 323 323 323 324 323 323 323 323 324 323 323 322 322 321 321 320 319 319 319 319 319 319 319 318 317 317 317 317 317 317 317 317 317 316 316 316 316 316 316 315 314 314 314 313 312 311 310 309 308 307 308 308 310 305 304 304 304 306 305 305 304 304 304 305 304 303 303 304 304 305 305
312 313 315 315 315 317 319 320 321 322 323 323 323 323 323 323 323 324 324 324 323 323 323 323 322 322 322 321 320 320 320 320 320 320 319 319 319 318 318 319 319 318 317 317 318 317 318 317 317 317 316 317 316 316 315 314 314 313 311 310 309 309 308 308 309 309 310 307 306 307 305 306 306 305 305 305 304 305 305 303 304 304 304 305 305
311 312 313 315 316 317 318 319 320 321 322 323 323 324 324 324 324 324 324 324 323 323 322 322 322 321 321 321 321 321 321 320 320 320 319 319 320 320 320 319 319 317 317 317 317 317 317 317 317 317 317 316 315 314 314 313 313 312 310 309 309 309 308 308 308 309 309 308 308 308 307 306 307 306 306 305 305 306 305 305 304 305 305 305 304
311 312 313 314 315 316 317 318 319 319 320 321 322 323 323 324 324 324 323 323 322 322 321 321 320 320 320 321 321 321 321 320 320 319 319 318 318 318 318 317 317 316 317 316 316 316 316 316 316 316 315 315 314 314 314 313 312 311 309 308 308 308 309 307 307 308 309 309 309 308 307 307 308 310 310 309 308 309 306 305 305 306 306 306 305
311 312 313 314 315 316 317 317 317 317 318 319 320 320 321 322 321 320 321 320 321 320 320 319 319 319 319 318 317 317 316 316 316 315 315 315 314 314 314 313 312 312 312 313 313 313 312 313 313 314 314 314 314 314 315 316 316 313 309 308 308 308 308 307 307 306 307 309 308 306 307 311 312 311 310 310 310 311 310 308 306 306 306 305 304
311 312 313 313 314 315 315 315 316 316 317 318 318 318 318 319 320 321 321 321 319 316 315 315 314 314 315 314 314 314 314 313 313 313 312 312 311 310 310 310 310 309 309 310 309 309 310 310 311 311 312 312 313 314 312 302 302 306 312 307 307 307 308 308 308 307 307 307 306 305 305 310 312 310 311 311 310 310 310 311 310 311 310 307 304
311 312 312 313 313 313 314 315 315 315 315 315 316 317 319 321 321 318 315 314 314 313 313 313 313 313 313 313 312 312 312 311 311 310 310 309 308 307 307 307 307 307 307 307 307 307 308 309 309 309 309 310 311 310 299 301 301 300 307 308 307 307 307 307 307 307 307 306 306 306 305 306 309 310 311 311 310 309 305 305 306 305 305 302 302
311 312 313 313 314 314 315 315 315 315 315 315 318 321 320 317 313 312 313 313 312 312 312 312 312 312 312 312 311 311 310 309 308 307 307 306 305 305 304 305 305 306 305 305 305 306 306 306 306 306 307 308 308 303 297 299 300 299 298 309 306 307 306 306 306 306 306 306 306 306 305 306 306 313 312 308 308 308 308 307 308 308 306 300 294
312 313 314 314 315 315 315 315 316 317 319 321 322 319 314 313 312 312 312 312 311 311 311 310 310 310 310 310 309 308 307 307 306 305 304 304 303 303 303 304 304 304 303 303 304 304 304 303 304 304 305 305 305 303 297 297 298 298 296 301 306 305 305 305 305 305 306 306 306 306 305 306 306 311 309 308 308 306 306 306 305 305 307 308 304
312 312 314 314 315 315 316 318 319 320 319 316 312 311 311 311 311 310 310 310 309 309 309 309 308 308 308 308 307 306 305 304 304 303 303 302 302 302 302 303 302 302 301 301 302 302 302 302 302 302 303 302 303 299 296 296 296 296 295 299 305 304 304 304 304 305 305 306 305 304 305 305 305 306 307 308 307 306 305 305 305 305 305 304 304
313 314 314 315 316 317 319 319 318 315 313 311 310 310 310 309 310 309 308 308 307 307 307 307 306 306 306 306 306 304 303 303 302 302 301 301 301 300 300 302 301 300 300 301 301 301 300 300 301 301 302 300 302 297 296 296 296 296 295 304 304 304 303 302 303 303 303 305 305 303 304 303 304 305 308 303 306 307 306 305 305 305 304 304 303
314 315 316 317 318 320 319 315 312 312 311 310 309 309 309 308 307 307 307 306 306 306 305 306 306 306 306 305 304 303 303 302 301 301 300 300 299 299 300 302 299 299 298 299 299 299 300 299 300 300 301 300 300 299 295 295 295 295 298 304 304 304 303 302 301 301 303 304 304 303 303 303 303 305 302 297 299 308 306 305 305 304 304 304 304
315 317 318 320 320 318 314 311 310 310 309 309 309 308 308 306 306 305 305 305 305 304 305 305 304 305 305 304 304 303 302 301 300 300 299 299 299 299 299 300 298 297 297 298 300 298 298 299 298 298 301 299 299 301 296 295 294 294 299 302 303 302 302 300 300 302 302 303 304 306 304 302 302 303 296 296 299 306 306 304 304 304 304 304 304
317 319 319 319 315 312 311 311 309 308 307 308 308 307 306 305 305 304 304 304 303 303 304 304 304 304 304 303 303 302 301 300 299 299 299 298 298 298 299 298 298 297 298 298 300 297 297 298 298 299 302 299 299 300 297 294 294 294 297 301 302 301 300 300 300 301 302 303 304 308 305 303 302 302 293 295 298 307 306 305 304 304 303 303 304
320 320 318 314 313 311 309 309 307 306 306 306 306 306 306 304 304 304 303 303 304 303 303 303 303 304 304 304 304 303 301 300 299 299 299 298 300 298 297 297 296 297 297 297 297 297 296 297 297 297 298 298 299 299 299 295 295 294 294 299 300 300 299 298 299 300 300 302 303 304 304 297 296 294 293 295 297 300 306 305 305 304 303 303 304
318 315 313 312 311 310 309 308 307 306 306 306 306 305 304 304 303 303 303 303 303 304 303 303 303 303 303 303 302 301 300 300 299 299 299 299 298 297 296 296 295 296 296 295 296 296 296 296 297 297 297 298 300 299 299 295 294 294 293 295 299 300 300 299 299 300 300 301 301 301 300 298 293 293 293 294 296 297 302 305 305 305 305 306 305
312 312 312 311 309 309 308 307 307 306 305 305 304 303 303 303 302 302 302 303 303 303 303 303 303 302 302 302 302 302 302 301 301 299 297 296 297 297 297 296 295 295 294 294 295 296 295 295 296 297 297 297 299 301 298 296 294 294 293 293 297 300 300 299 299 299 300 301 301 299 298 297 292 293 293 293 294 295 298 304 300 297 295 297 308
310 309 310 310 309 308 308 306 306 306 305 304 304 303 303 303 302 301 302 303 303 302 302 302 302 302 303 302 301 302 301 301 300 299 297 296 296 296 296 296 294 294 294 293 294 294 294 294 296 296 297 297 298 298 297 297 295 294 293 293 292 295 294 301 299 299 299 300 299 299 299 296 291 292 293 293 294 294 299 297 291 292 294 296 305
309 309 308 308 308 307 306 306 307 306 305 304 304 303 303 302 301 302 303 303 302 301 302 301 301 301 301 302 301 301 300 299 300 298 298 296 296 296 296 295 294 294 293 293 293 294 294 294 294 295 296 297 297 296 297 295 295 294 293 293 292 291 292 299 301 301 301 299 297 297 298 292 291 292 293 293 293 296 295 291 292 293 295 301 307
309 309 309 308 307 305 305 305 305 305 304 304 304 303 303 301 302 303 302 302 301 301 301 300 299 299 299 299 299 299 299 299 298 297 297 297 296 296 295 294 294 293 293 293 293 294 294 294 294 295 295 296 296 295 295 295 294 295 293 292 292 291 292 293 301 302 301 299 296 293 292 291 291 291 291 292 293 293 291 292 292 295 306 305 306
308 307 307 306 305 305 304 303 303 304 304 304 304 304 303 302 303 304 302 302 302 301 300 299 299 298 298 298 297 297 297 297 297 297 298 297 296 296 296 296 294 293 293 293 293 294 294 293 294 295 296 296 295 295 294 294 295 296 295 293 293 292 297 298 302 300 296 292 291 291 290 291 292 293 296 296 296 296 292 293 296 300 304 305 305
306 306 306 305 304 303 303 302 302 303 303 304 303 303 303 303 303 302 302 302 301 301 300 299 298 298 298 298 297 296 296 296 295 295 295 296 296 295 294 295 294 293 292 293 293 294 293 293 293 294 295 295 295 294 294 293 294 294 294 294 294 294 298 299 301 299 297 296 294 294 293 292 293 293 295 297 297 296 297 299 299 299 302 304 303
306 306 306 304 303 302 302 302 302 303 304 304 304 303 303 302 302 301 301 301 301 300 298 297 297 298 298 297 299 301 296 294 294 294 295 295 295 295 294 293 293 293 292 292 293 293 293 292 292 294 294 294 294 293 293 293 293 293 293 294 294 294 296 299 298 298 297 297 295 295 294 295 295 295 295 296 295 295 295 297 298 298 300 303 305
304 304 304 303 303 302 302 303 302 302 303 303 302 302 302 301 301 301 301 300 299 298 298 296 297 297 297 298 296 295 295 294 294 294 294 294 294 294 293 294 294 295 294 294 294 294 294 293 293 293 293 292 293 292 293 292 293 292 292 292 292 294 297 299 298 295 296 295 294 293 292 293 293 293 294 294 295 294 295 297 299 300 302 303 303
303 304 303 304 304 303 303 302 302 303 302 302 301 301 302 301 301 300 300 300 299 298 297 296 296 296 296 296 295 294 295 295 293 293 293 294 295 293 293 293 293 295 292 291 292 294 294 294 293 294 295 294 293 294 293 291 291 292 291 291 291 292 295 297 294 292 295 293 293 292 293 293 293 294 295 294 294 294 295 296 297 297 300 301 301
303 302 302 302 303 304 303 302 302 303 303 302 301 301 301 300 300 300 300 299 299 298 297 296 297 295 295 296 295 294 294 293 293 292 292 293 292 293 291 292 293 294 292 291 291 291 291 291 294 293 294 292 292 292 291 292 292 292 291 291 291 292 293 292 292 294 294 293 292 292 293 293 293 294 293 294 293 293 294 296 297 299 300 300 299
Wind_Speed
2 3 6 6 6 5 3 3 4 4 4 5 5 5 6 6 5 6 4 3 4 3 1 2 2 1 0 0 2 3 3 2 4 4 4 6 6 6 5 6 5 5 5 4 5 5 5 5 4 6 4 3 4 5 5 6 5 4 3 2 3 3 3 2 1 1 2 5 4 5 5 3 3 3 4 5 5 5 3 4 4 5 5 5 6
4 4 4 4 4 4 4 4 4 4 4 5 7 7 5 4 6 6 3 3 3 4 5 3 2 2 2 3 2 3 3 2 4 4 6 5 5 6 6 5 5 5 5 4 5 5 5 5 4 6 5 5 4 4 4 4 5 2 0 3 1 3 3 3 1 1 2 4 5 5 5 5 4 2 4 5 6 5 4 4 5 6 6 5 5
4 6 4 4 4 4 4 4 5 6 5 6 5 5 5 5 5 4 4 5 4 3 3 2 2 2 3 3 3 3 2 2 3 4 3 4 5 5 5 5 5 6 6 5 4 5 5 4 5 5 5 5 4 5 4 6 5 3 1 2 4 1 3 3 3 1 2 3 1 1 3 3 4 4 2 5 5 4 4 5 5 6 7 6 4
8 5 5 3 4 4 4 4 6 4 4 4 5 6 5 5 4 4 5 4 4 4 4 4 3 2 2 1 1 2 2 2 2 2 2 2 5 3 4 5 6 7 6 5 4 4 5 6 5 4 6 5 5 4 5 6 4 4 3 3 2 4 3 2 0 2 2 2 5 2 2 1 5 2 3 6 2 5 4 5 4 6 6 7 5
7 5 5 4 5 7 8 6 4 6 6 7 7 7 6 7 7 6 6 6 5 4 4 3 1 1 1 1 1 2 1 2 3 4 2 2 3 3 7 5 6 7 7 6 5 5 5 5 5 5 5 5 4 4 5 6 5 4 3 3 4 4 4 2 2 2 4 2 1 3 3 2 2 5 6 4 3 4 4 4 6 6 7 7 6
8 8 7 7 6 4 3 4 5 5 6 7 6 6 5 6 5 4 3 3 4 4 4 3 3 4 2 2 3 2 4 4 5 5 6 4 5 3 4 5 5 5 6 6 6 5 6 6 5 5 5 5 5 6 5 4 5 5 5 5 5 4 4 3 4 2 3 2 3 2 3 2 5 5 3 5 2 4 2 5 6 7 7 7 7
5 5 4 5 5 4 5 5 7 7 8 4 4 5 4 4 5 5 6 5 4 4 3 3 3 3 4 4 4 5 6 5 3 4 5 6 4 6 6 5 4 5 6 5 6 6 5 5 6 6 6 5 5 5 5 6 5 5 3 4 5 3 3 4 5 5 3 1 1 2 2 2 2 2 4 4 9 3 0 5 6 7 7 7 8
7 7 6 6 6 8 10 10 7 10 4 5 5 4 6 6 6 6 5 5 4 4 4 4 5 4 4 4 4 5 6 7 5 6 4 4 5 6 6 6 5 4 5 5 5 5 5 6 6 6 6 6 5 5 6 5 4 3 3 3 3 3 4 5 6 3 2 3 1 3 3 2 1 3 4 3 3 7 8 1 2 7 8 7 7
8 7 8 8 9 9 8 7 8 4 5 7 7 7 6 5 5 4 5 5 5 5 5 5 5 5 6 5 6 5 5 6 5 4 5 4 5 6 5 6 5 4 4 5 5 6 5 6 6 6 6 6 5 5 5 5 5 5 4 3 4 4 4 4 2 4 4 4 2 3 2 3 2 1 2 3 3 4 7 6 8 2 5 7 8
6 9 8 7 8 8 8 4 3 6 4 4 4 4 4 4 5 5 6 6 5 5 5 5 5 5 5 5 6 6 4 5 3 6 5 4 5 6 5 5 5 5 5 5 5 6 6 6 6 7 7 6 5 6 5 5 5 5 5 4 3 5 3 4 5 4 4 4 4 3 3 2 2 1 1 2 3 4 5 7 6 9 11 7 7
7 7 6 7 5 4 3 6 4 3 3 4 4 5 5 5 5 6 8 6 5 6 6 7 6 5 6 6 7 7 6 5 6 6 5 5 6 6 5 5 4 6 5 6 6 6 6 5 6 6 5 5 5 5 6 6 6 6 5 3 3 5 5 4 4 4 3 3 4 5 5 5 4 3 4 3 3 4 3 4 5 3 6 8 7
7 6 6 4 4 4 4 5 4 4 4 5 5 4 5 5 5 6 5 6 6 6 5 7 6 6 6 6 7 7 6 6 7 7 6 6 6 6 5 5 6 5 5 6 6 6 6 6 6 5 5 5 6 6 5 6 6 5 4 4 5 6 4 3 3 4 4 4 4 4 5 4 3 4 4 4 4 4 2 4 5 4 4 4 6
7 7 6 6 7 8 7 6 4 6 8 7 7 6 5 5 7 7 8 7 7 6 7 7 6 7 7 7 7 6 6 7 7 7 6 6 6 6 6 6 6 6 6 5 7 7 5 6 6 6 6 6 6 6 6 6 6 5 5 4 4 5 5 4 4 5 5 5 6 5 4 4 5 4 3 4 3 3 3 3 3 2 5 6 4
8 8 7 8 8 8 8 7 8 7 7 7 7 7 6 6 7 8 10 7 6 6 7 7 8 8 7 7 7 6 7 6 7 7 7 6 6 6 6 7 7 7 7 7 7 6 5 6 6 6 6 6 6 7 7 6 6 5 5 5 6 6 4 4 5 6 5 6 4 4 4 4 5 3 4 4 4 3 3 3 3 2 3 6 3
7 7 9 10 9 9 8 8 8 8 8 7 6 7 6 7 7 9 8 7 7 8 6 8 8 7 7 7 6 5 7 6 7 7 7 6 6 6 7 6 6 7 7 7 6 6 6 5 6 6 6 6 6 6 6 6 5 5 4 5 5 4 4 4 5 5 5 5 5 5 4 3 4 3 3 4 4 4 3 2 1 6 5 3 4
7 7 7 7 7 7 7 7 8 7 8 7 7 6 7 8 8 9 10 8 8 7 8 8 8 7 6 6 8 6 6 5 6 6 6 6 7 6 7 7 7 7 6 6 7 6 6 6 6 6 6 6 6 7 7 5 5 5 5 4 6 3 4 5 5 5 6 6 6 4 3 4 4 3 3 4 5 4 3 2 3 2 3 7 4
7 8 8 8 5 7 8 8 7 6 6 9 9 9 10 9 8 9 8 6 6 8 8 7 7 6 7 7 6 6 7 8 8 7 7 6 6 7 7 7 6 6 7 5 7 6 6 6 6 6 6 6 6 7 6 6 7 6 6 5 6 5 4 6 4 5 5 5 5 5 5 4 5 2 2 3 3 3 3 3 4 4 3 2 3
11 8 6 7 8 9 8 7 7 9 9 9 9 8 8 8 8 9 8 8 8 7 8 7 7 7 7 7 7 8 7 7 7 8 7 6 6 6 6 7 8 7 6 6 6 7 6 5 6 6 6 5 6 6 7 7 6 6 7 6 6 5 5 4 4 4 5 4 5 3 3 4 3 2 2 2 2 2 2 2 3 3 4 2 2
5 6 6 7 8 9 9 9 8 8 7 8 7 7 6 6 6 7 9 10 8 7 5 5 5 6 6 7 7 6 6 6 6 6 6 7 8 7 7 8 7 6 6 6 6 6 6 6 5 6 5 7 6 6 7 6 6 7 6 6 6 5 5 5 5 4 5 4 5 5 3 4 2 3 2 1 0 1 1 2 1 2 3 3 3
8 8 8 9 9 9 10 10 10 9 8 7 6 5 7 7 6 7 5 4 4 5 5 7 6 6 6 4 5 6 6 6 6 6 7 8 9 8 7 7 8 6 6 6 6 6 5 6 6 6 6 7 6 8 6 7 6 7 7 6 6 5 6 7 6 4 4 5 5 5 4 4 3 2 2 0 1 1 1 0 1 1 2 2 3
9 9 9 9 8 8 7 6 5 4 4 4 6 8 8 6 7 7 8 7 7 6 5 7 4 5 5 7 7 5 6 5 6 7 7 8 8 7 7 7 5 7 5 6 5 5 7 7 7 6 6 7 7 7 6 6 7 7 6 7 6 6 7 7 5 5 4 5 5 5 4 4 3 4 1 1 1 1 0 0 1 1 1 1 2
9 9 8 8 7 6 4 4 4 5 5 6 6 5 5 7 8 7 6 6 7 6 6 5 4 5 6 7 6 5 5 5 6 7 8 8 7 7 6 5 6 7 4 7 7 7 6 7 6 7 7 7 7 7 6 6 7 7 7 6 7 7 8 7 5 7 5 4 5 5 4 3 3 2 2 2 2 1 2 2 2 1 1 1 1
11 10 9 7 7 7 7 8 8 8 7 7 6 7 7 7 6 6 7 9 8 7 5 5 6 6 7 6 5 5 5 6 7 7 7 8 7 7 4 6 6 7 6 6 7 6 6 6 6 7 7 7 7 7 6 6 7 6 8 8 7 7 8 8 7 6 5 5 5 5 5 3 3 3 2 2 0 1 1 2 2 1 2 1 1
4 2 2 3 4 4 5 6 6 6 6 7 7 7 6 6 6 6 8 9 7 5 5 5 5 6 5 5 6 5 5 6 7 6 7 7 5 6 4 5 6 6 7 6 5 6 6 6 6 7 7 7 7 7 6 6 7 8 9 9 8 8 9 8 7 4 5 5 6 5 4 4 4 4 3 2 1 0 1 2 1 2 2 2 1
5 6 5 5 6 7 8 7 8 7 6 6 7 7 7 7 5 7 8 6 5 4 5 5 5 5 5 5 6 5 6 6 6 5 6 6 5 5 4 5 5 6 6 6 6 5 6 6 7 8 7 7 7 6 7 8 7 7 9 9 8 8 7 7 4 6 5 5 4 5 4 5 5 4 3 2 1 1 1 1 2 2 1 1 1
6 5 6 9 9 7 6 6 6 6 7 7 7 7 6 5 7 6 7 5 4 4 5 5 4 5 5 5 5 4 5 4 4 4 5 5 5 5 5 5 4 6 6 5 6 6 5 7 7 7 7 7 7 7 7 8 8 7 7 7 7 7 6 6 5 6 4 6 6 6 5 6 6 6 4 3 2 2 1 1 2 2 2 2 3
8 9 7 4 5 8 9 7 8 7 7 7 7 7 6 6 6 6 4 4 4 4 4 4 4 5 4 4 3 3 3 3 4 5 4 4 5 5 5 5 5 5 6 6 6 6 6 6 7 6 7 7 7 7 7 7 8 7 7 6 6 6 6 5 6 5 5 6 5 6 5 6 6 5 5 4 3 2 1 2 2 1 2 2 3
3 4 6 10 9 7 8 8 7 7 6 5 5 6 7 7 6 4 3 3 4 4 3 3 3 2 2 2 1 1 2 3 3 3 4 4 4 4 4 4 4 5 5 5 6 6 6 5 6 6 7 6 7 7 7 7 7 6 6 6 6 6 6 5 5 5 6 5 6 5 5 6 6 6 6 5 5 4 2 2 1 2 2 4 5
7 8 8 7 8 9 9 8 8 5 6 6 6 5 4 4 3 3 3 4 5 4 3 3 2 1 1 0 1 3 3 5 5 6 6 6 6 5 5 5 5 5 5 6 5 6 7 8 8 6 7 6 6 6 6 6 6 6 5 5 6 7 6 6 6 4 3 3 4 4 4 4 5 7 8 7 6 5 4 4 2 2 3 4 5
10 10 10 9 10 8 9 8 6 7 7 6 6 5 4 4 3 3 3 3 5 5 6 5 5 5 5 5 6 5 6 6 7 7 6 6 6 6 6 7 7 7 7 7 8 7 6 7 7 8 7 6 6 5 7 10 8 6 5 5 5 6 5 6 6 5 5 3 5 3 4 6 9 9 11 10 8 6 7 5 3 2 3 4 4
9 7 8 8 7 7 6 7 8 8 8 7 5 3 4 4 4 5 6 5 7 8 7 8 7 6 5 5 7 7 7 8 6 6 7 7 7 6 7 8 8 7 8 8 7 9 9 8 8 7 8 8 7 7 15 14 12 9 6 5 5 5 5 6 6 6 6 5 3 2 4 5 7 8 8 9 7 6 7 6 4 3 3 3 3
10 9 7 7 7 7 8 10 9 8 6 5 5 5 6 6 6 7 7 8 9 9 9 8 7 6 6 7 7 7 8 7 7 7 6 6 6 8 8 8 8 10 9 7 10 9 8 9 8 9 9 8 7 15 19 17 13 9 6 5 4 5 5 5 4 5 5 6 6 5 4 2 3 5 7 6 6 7 7 6 5 2 3 6 5
10 9 10 10 10 10 10 9 6 7 6 5 8 8 8 8 9 8 8 9 9 9 9 8 7 7 7 6 7 8 7 7 6 6 6 7 8 9 9 9 9 7 7 9 8 9 10 9 10 10 10 9 8 18 19 19 15 8 7 6 4 5 5 4 5 6 6 6 6 5 3 2 3 8 7 6 6 5 5 4 4 3 1 4 3
8 10 11 11 8 5 4 5 4 3 5 6 7 10 9 9 10 8 10 9 10 9 9 8 7 7 7 6 7 7 8 7 7 7 8 9 9 8 7 7 7 8 9 9 9 9 9 10 9 9 8 8 8 17 19 19 17 9 6 6 4 4 4 5 5 6 6 6 6 6 5 4 3 5 6 6 5 5 5 4 3 2 3 5 5
10 9 8 8 7 6 7 7 7 8 8 10 10 11 10 10 9 10 9 10 9 10 8 7 7 6 6 7 8 8 8 8 8 8 8 9 8 8 9 7 6 7 7 7 7 8 8 8 9 9 8 8 7 16 19 19 18 13 6 4 3 3 4 4 4 4 5 4 5 5 6 6 5 5 5 7 6 5 5 5 3 4 4 4 4
12 12 9 8 8 10 10 9 8 11 9 10 11 9 12 10 8 10 9 9 9 10 8 7 8 7 7 7 8 8 8 8 8 8 8 8 8 8 8 7 6 7 6 6 7 7 8 8 7 8 8 9 8 15 18 20 19 15 6 2 3 4 4 3 3 3 3 3 2 3 4 4 4 4 5 7 6 6 6 6 4 4 4 4 4
6 7 9 8 9 10 10 10 10 11 12 11 10 11 12 11 10 9 10 9 9 10 8 7 8 7 7 7 7 9 8 7 7 8 8 8 7 7 7 5 6 6 7 7 7 6 5 6 7 7 8 7 8 13 17 19 19 17 6 2 2 4 4 4 3 2 2 2 4 4 3 4 4 4 6 9 10 7 6 6 5 5 4 4 4
6 8 8 10 9 10 10 13 13 11 10 11 10 11 12 11 10 8 10 9 10 9 7 8 8 7 7 7 7 8 8 7 7 8 7 6 5 5 6 5 5 6 7 7 6 6 6 6 7 7 8 8 9 11 15 17 18 18 10 4 1 2 3 4 4 3 2 1 3 4 3 3 4 4 6 9 10 7 7 6 6 6 5 5 3
7 11 13 10 10 12 13 13 14 14 9 9 11 13 13 11 9 9 9 10 9 8 7 8 7 7 7 7 7 8 8 7 8 6 5 6 5 4 3 3 4 5 5 5 5 6 6 6 6 7 12 12 9 11 15 16 18 18 10 4 1 2 3 3 4 4 3 3 2 3 7 5 3 4 7 7 6 5 6 6 6 5 5 5 3
10 7 9 12 13 14 13 13 14 12 9 10 11 12 12 11 9 8 10 9 8 7 7 7 7 7 7 7 6 7 6 7 7 5 5 5 3 3 5 4 5 4 5 5 5 5 7 7 6 7 7 9 10 10 13 15 17 17 15 5 2 2 3 4 3 4 5 5 4 5 5 6 2 4 7 7 5 4 5 5 5 5 6 5 3
11 13 13 13 11 11 12 11 11 11 10 10 11 13 11 9 9 10 9 8 7 7 8 8 8 8 8 7 6 7 7 6 5 5 3 3 3 4 4 5 6 5 5 6 7 6 7 7 7 6 6 7 8 10 11 15 16 16 16 10 2 2 2 4 3 4 4 5 5 5 5 7 3 2 7 6 5 4 5 6 5 5 4 5 4
9 9 10 12 13 13 12 10 7 8 9 10 12 14 10 9 10 10 7 6 7 8 8 8 9 8 7 7 7 6 5 5 4 4 5 5 4 4 5 5 5 6 7 7 7 6 7 8 8 6 5 6 9 13 10 13 16 15 15 14 4 2 2 4 4 3 4 4 5 5 5 6 6 5 6 7 7 7 7 6 5 4 7 10 5
14 13 11 10 14 13 11 7 6 5 7 9 15 14 10 9 11 7 6 6 7 8 8 8 8 8 7 6 6 5 5 3 4 4 5 5 4 5 5 6 6 6 7 7 7 7 6 7 8 8 7 8 7 7 13 12 15 15 14 14 10 5 2 3 4 4 5 5 3 5 4 9 7 7 7 9 8 8 5 5 8 7 8 9 7
15 16 15 12 11 11 9 6 6 6 5 7 14 13 10 11 10 5 6 7 8 8 8 8 7 7 7 6 6 5 5 4 4 4 5 5 5 5 5 5 5 6 6 7 7 7 6 6 9 9 8 9 8 9 9 15 14 15 13 13 13 8 5 1 3 4 5 4 5 6 6 9 8 8 8 8 6 6 5 7 8 9 9 7 5
18 17 17 18 16 13 10 9 8 6 4 4 8 15 12 12 7 5 7 8 7 8 8 8 7 7 7 6 5 5 5 5 5 5 5 5 5 5 5 5 6 6 6 6 6 6 6 6 7 8 9 9 10 9 7 10 15 14 12 12 13 10 6 3 4 4 5 4 4 8 10 8 9 10 10 9 7 6 5 5 8 8 6 4 5
15 14 16 17 16 16 15 12 9 8 6 4 4 10 14 9 6 6 6 7 8 9 8 7 6 6 5 5 7 6 5 5 5 4 4 4 5 5 5 6 5 5 5 5 6 5 5 6 7 8 8 8 9 9 9 9 11 12 10 12 13 10 6 4 3 6 7 10 11 11 10 10 9 7 7 5 5 3 3 6 9 6 3 3 5
16 16 19 19 19 16 16 14 11 7 6 5 4 5 8 7 7 6 6 8 9 9 8 7 7 6 5 6 7 6 5 5 5 5 5 5 5 5 5 6 5 5 5 4 5 5 5 6 8 9 9 9 8 9 9 8 10 9 8 9 8 7 4 4 5 6 7 7 8 7 6 7 7 8 9 7 6 4 3 3 4 4 4 3 4
13 12 15 16 17 18 16 15 13 8 4 4 2 5 6 7 6 7 7 8 8 8 8 7 6 6 6 6 6 7 6 5 5 5 6 6 5 5 6 5 4 4 4 4 4 5 5 6 7 7 9 9 10 9 8 10 13 12 10 7 6 4 2 4 5 5 6 6 7 7 8 5 5 5 6 5 4 4 3 3 3 4 4 4 6
14 12 14 16 17 17 16 16 13 10 7 1 1 2 4 6 6 7 8 10 8 8 7 7 6 6 6 6 6 6 5 6 6 6 5 3 5 5 6 6 4 2 2 1 3 4 5 4 4 5 8 10 10 11 11 11 13 13 10 8 5 2 2 3 6 10 8 6 6 6 5 5 4 5 5 4 4 4 4 3 3 3 3 4 5
10 12 13 14 15 17 16 14 12 11 8 2 0 1 3 4 5 6 8 9 8 7 7 6 6 6 6 6 6 6 5 6 5 5 5 6 6 6 4 4 6 7 5 2 0 4 4 4 4 3 3 5 8 9 13 17 16 16 15 10 5 5 2 7 8 11 8 6 5 5 5 5 4 5 5 4 4 4 3 3 2 2 3 3 4
13 15 13 14 12 13 14 13 11 10 9 4 1 2 3 3 5 5 8 8 8 7 6 6 6 6 6 6 6 5 5 5 5 5 5 5 5 6 6 9 10 10 8 5 3 6 9 9 6 5 4 4 9 12 14 15 15 15 14 9 2 4 10 12 10 8 5 5 5 5 4 4 3 4 5 4 3 3 3 3 2 1 2 3 4
Wind_Direction
257 196 212 215 220 215 191 161 153 147 163 168 170 184 186 185 167 196 199 166 154 142 137 156 204 311 30 8 233 259 258 237 238 242 228 228 225 220 226 235 241 247 250 227 235 245 243 256 268 279 279 277 275 272 269 286 272 235 261 323 274 298 308 226 285 123 6 313 319 311 314 285 264 283 299 333 321 293 295 319 320 333 332 332 329
272 255 232 215 215 201 169 163 156 163 192 169 184 189 185 178 183 192 171 170 171 176 183 150 179 175 179 225 215 249 262 258 267 256 234 238 236 231 227 233 239 243 251 232 237 235 253 251 253 262 273 267 256 266 281 279 280 249 63 336 233 242 258 245 252 55 4 321 314 325 328 319 290 309 315 313 320 300 309 322 324 330 320 319 317
267 252 228 213 205 194 180 183 193 199 173 187 179 162 177 186 195 185 183 176 195 189 154 188 193 188 167 222 181 262 251 243 252 263 265 243 246 247 250 248 245 251 248 242 233 237 242 243 250 251 260 257 270 287 292 279 254 274 185 212 299 282 255 258 248 108 266 273 221 302 295 354 330 348 325 307 301 296 316 321 325 315 312 313 307
253 248 244 218 199 189 183 195 200 174 166 169 174 180 180 190 193 190 190 190 190 204 191 207 183 179 229 242 295 215 263 345 321 286 290 266 260 251 254 242 242 247 251 241 242 239 231 235 243 241 253 238 227 248 274 272 278 268 257 234 179 298 323 299 112 260 170 354 350 302 282 23 320 298 285 287 300 296 292 309 305 308 315 321 331
245 245 236 201 190 202 201 201 160 182 189 188 183 186 187 192 194 189 189 191 197 197 204 184 175 57 19 32 60 349 334 6 355 319 293 258 275 269 249 231 237 242 249 246 235 243 236 237 234 239 243 243 214 219 245 249 238 227 225 237 198 221 282 261 271 216 223 214 249 351 345 5 230 279 319 284 332 335 303 324 315 331 328 324 323
221 230 220 205 210 206 202 175 185 200 202 203 190 187 180 187 183 189 195 198 198 206 201 170 194 191 201 246 279 295 286 295 277 258 284 281 245 267 279 244 240 245 251 251 239 238 241 235 234 238 242 237 218 224 234 252 253 244 225 208 238 220 229 257 285 247 202 214 174 163 192 270 308 303 12 313 297 257 247 307 325 329 324 319 315
235 233 206 195 210 193 205 201 203 199 216 168 171 182 186 183 185 185 192 198 200 203 196 187 197 199 201 204 207 217 230 256 244 256 250 271 294 288 277 284 251 245 257 244 242 236 233 231 225 228 235 232 225 215 219 223 227 218 212 193 230 230 169 253 253 263 337 229 182 203 234 243 157 307 296 310 324 332 163 345 326 326 321 313 316
215 219 211 208 197 197 201 207 194 210 174 151 172 176 189 191 182 190 197 199 203 194 186 194 197 205 213 222 217 223 221 241 250 262 250 256 287 282 287 282 283 245 262 265 246 241 233 239 227 228 228 230 215 205 211 223 224 257 218 216 241 214 204 229 260 237 215 270 319 303 302 277 179 219 202 248 265 298 314 286 222 323 322 313 297
205 208 211 204 200 205 209 203 210 175 160 176 186 188 188 186 184 184 197 204 208 200 194 202 198 198 207 210 235 239 229 244 261 275 281 284 290 284 283 282 290 284 258 267 271 260 253 241 228 221 220 229 210 210 224 213 208 223 234 222 226 250 217 213 223 241 187 232 272 289 308 287 299 228 222 161 239 288 296 328 323 305 293 301 325
208 216 211 207 206 207 209 202 164 196 179 170 166 162 175 172 185 186 211 207 208 207 208 205 207 204 207 219 230 253 253 269 262 271 273 277 277 278 282 284 281 292 276 259 264 257 252 242 221 216 217 220 208 209 213 215 230 229 235 231 239 261 242 197 205 226 203 230 208 209 234 296 332 353 117 171 254 201 267 309 318 327 334 323 307
206 212 211 212 201 201 151 191 193 153 160 163 174 179 174 179 188 196 215 207 206 209 201 218 211 209 216 218 225 239 246 249 269 272 270 282 270 278 281 282 289 277 284 277 258 257 247 235 226 227 222 217 212 202 209 211 222 220 216 186 253 250 260 211 231 233 222 231 218 194 218 219 236 227 246 253 218 264 286 277 293 294 293 306 312
200 197 208 182 159 172 162 197 184 176 159 182 189 182 183 187 182 205 219 212 211 210 203 220 213 217 219 220 225 231 232 237 240 254 259 263 269 276 281 298 290 287 274 273 272 255 245 241 234 233 229 217 221 209 211 214 224 217 182 172 220 236 245 232 215 242 231 240 230 198 220 218 205 211 237 220 203 240 229 283 299 297 274 243 278
187 199 189 179 189 186 192 201 176 177 196 193 194 188 189 186 189 198 223 212 211 204 207 215 214 218 215 221 228 228 229 233 241 250 249 252 260 270 279 279 283 291 277 274 272 261 244 245 238 230 230 223 220 207 221 217 223 218 199 205 270 265 237 222 227 233 222 220 236 208 207 202 221 215 208 229 233 229 223 293 265 256 296 306 297
192 191 190 192 193 195 197 193 193 197 200 197 193 190 191 191 193 201 224 210 210 206 213 216 220 221 218 220 225 222 231 228 237 242 249 241 243 252 255 256 264 261 272 268 263 270 247 238 241 238 234 231 218 218 218 217 216 219 218 200 210 245 232 221 233 238 223 233 229 223 216 218 237 198 210 199 212 188 235 233 287 296 275 294 282
188 187 195 196 196 191 191 193 196 199 196 196 193 196 187 197 194 208 225 219 206 213 210 219 226 224 224 223 227 222 231 232 237 234 243 248 247 248 253 254 251 260 255 260 269 256 253 249 240 241 240 231 225 221 222 219 219 224 227 229 237 232 221 225 238 230 230 227 216 219 233 231 253 234 193 225 196 211 210 213 182 318 320 273 308
189 195 203 205 195 189 189 194 199 196 194 190 195 191 194 205 201 208 215 216 209 210 215 216 225 223 222 225 228 227 235 239 251 249 246 235 248 243 255 252 251 257 262 261 260 247 252 252 250 244 238 231 222 219 220 211 213 226 239 224 243 220 216 223 239 225 234 227 225 205 204 252 261 240 210 213 204 205 197 178 187 172 292 327 320
191 199 199 198 183 193 197 196 195 192 189 194 196 193 198 198 201 212 220 221 213 215 218 217 224 220 227 224 228 228 231 236 241 248 248 245 242 246 249 256 262 256 260 252 259 253 250 248 253 251 239 230 227 224 221 216 208 213 219 221 237 239 220 233 235 225 238 231 227 205 205 215 257 240 246 227 207 186 187 187 180 198 178 281 319
198 198 196 191 194 193 194 197 195 194 195 196 200 196 198 198 201 207 213 217 222 213 218 217 217 222 229 227 227 225 229 237 241 250 253 257 255 250 253 263 255 253 248 256 249 257 255 250 248 252 249 238 233 232 220 222 213 217 219 223 230 222 230 249 235 223 239 224 228 212 198 224 267 295 257 243 211 162 148 179 191 208 163 213 239
182 196 187 189 194 194 195 196 194 194 198 202 195 185 189 201 206 207 216 217 216 211 218 224 214 224 224 227 227 231 232 239 245 247 251 252 256 253 251 254 268 259 255 256 257 260 259 258 246 259 254 247 236 236 229 225 212 226 230 234 233 221 229 248 247 213 233 208 220 231 191 229 240 234 220 220 350 69 91 125 208 185 180 191 198
194 195 197 198 196 196 194 189 188 190 191 191 180 179 200 204 201 215 228 235 223 216 212 222 219 218 235 234 234 228 229 230 237 240 247 246 252 254 257 262 257 263 254 257 261 266 276 272 254 241 251 255 231 238 224 225 218 224 229 233 235 217 229 233 245 227 218 206 211 223 210 210 198 185 188 102 45 24 29 135 142 187 206 187 186
196 195 197 196 196 197 195 187 186 176 179 172 177 191 203 193 208 211 215 224 225 224 211 228 211 223 228 236 238 227 235 232 239 235 245 252 255 255 254 255 280 265 264 264 261 262 256 255 260 265 252 255 242 242 228 222 220 227 229 233 235 224 229 233 222 243 215 205 208 209 208 216 169 171 171 72 38 26 315 333 115 111 198 207 179
195 196 192 192 192 192 166 145 152 164 177 182 190 192 198 204 211 208 213 224 227 228 219 223 214 219 224 236 239 231 230 227 237 240 246 254 257 255 259 274 264 272 257 267 255 249 260 263 265 269 261 253 253 247 238 218 225 225 234 230 230 225 227 228 211 227 213 208 194 185 197 201 163 162 99 85 49 305 321 309 44 19 269 253 195
192 192 192 189 185 181 171 170 176 180 184 186 188 197 206 210 205 206 208 228 219 226 205 203 212 219 232 234 235 233 225 232 241 249 251 258 261 268 262 265 274 282 276 258 268 269 263 262 260 257 252 253 248 250 246 229 232 219 232 235 229 226 225 219 216 218 210 196 179 178 192 179 131 135 113 77 101 271 280 357 358 323 281 282 252
199 162 141 154 152 148 151 166 173 182 185 190 198 203 205 206 206 202 217 228 222 217 206 202 212 226 230 233 236 235 231 237 246 253 256 268 290 301 317 286 284 283 280 278 264 275 272 265 262 264 253 256 256 251 252 240 231 221 232 236 224 222 225 219 212 179 227 188 194 160 194 165 160 152 129 151 189 211 339 360 346 316 289 318 305
170 168 162 150 155 171 182 180 185 187 188 193 197 203 202 208 197 208 225 222 216 197 201 211 212 230 230 233 244 233 243 247 256 288 297 306 293 287 282 271 275 278 273 280 284 256 263 260 258 261 267 262 254 247 251 252 240 225 230 237 231 224 215 214 189 186 200 186 152 176 183 163 163 151 157 170 190 103 25 356 333 321 339 349 41
174 158 155 178 185 179 176 186 187 187 192 194 199 203 204 203 209 210 220 214 200 184 200 205 208 224 236 236 246 247 260 289 307 290 275 276 282 280 284 278 261 282 293 286 280 284 260 268 263 264 267 270 266 254 253 258 258 241 238 243 244 234 211 204 178 191 166 156 183 168 195 167 163 165 173 158 150 97 64 9 344 7 6 32 58
181 181 179 150 158 187 191 190 192 189 193 194 194 198 201 202 213 213 211 194 187 181 192 196 205 217 242 254 271 287 290 271 258 261 273 294 299 300 302 303 301 288 295 301 299 286 282 269 276 278 278 278 281 277 267 263 262 253 245 247 233 213 200 207 191 168 154 159 180 180 178 176 169 163 158 160 154 145 102 53 30 38 25 53 59
164 161 167 184 190 186 190 195 192 195 189 197 194 195 198 198 210 201 184 177 170 164 174 186 190 212 246 314 285 227 223 244 279 310 321 320 329 340 338 326 328 327 314 306 305 306 307 305 294 296 294 294 288 286 278 269 266 263 251 238 224 212 204 187 169 182 168 171 190 187 182 183 162 155 156 151 155 143 149 100 83 95 71 70 70
180 193 190 187 187 192 194 194 199 186 190 196 195 195 189 191 180 173 164 177 164 151 141 128 112 98 54 176 46 46 50 57 55 53 43 34 27 20 13 13 11 3 349 342 336 341 339 335 332 323 311 305 297 286 284 284 285 273 236 228 216 214 193 171 182 169 103 180 194 196 194 182 163 165 157 161 176 157 147 113 100 109 92 89 85
193 194 195 197 195 190 193 192 189 191 198 195 195 190 175 163 157 149 135 124 109 99 103 91 82 84 82 82 84 75 67 59 52 47 38 30 26 17 17 15 14 6 2 357 355 354 358 349 336 335 331 328 316 311 302 303 292 265 241 226 218 217 186 177 165 159 180 150 176 175 233 199 177 165 161 169 169 140 115 112 142 122 105 96 92
200 193 199 200 196 192 184 190 198 197 199 197 183 150 129 123 112 99 103 115 106 103 95 99 94 86 84 79 71 63 59 54 45 43 31 27 20 19 22 17 10 7 5 358 358 5 2 353 351 343 338 335 340 337 335 326 310 276 241 215 210 204 193 185 168 163 170 145 145 155 227 224 189 166 163 175 158 137 121 122 142 123 113 120 132
197 196 189 193 195 190 189 196 203 201 193 175 148 134 120 116 113 108 110 108 103 102 101 91 90 81 71 67 68 68 60 48 41 33 30 26 28 29 23 14 12 8 359 3 16 6 3 3 357 357 360 354 350 359 347 336 318 290 244 209 198 183 197 186 157 152 143 146 151 196 229 229 140 153 158 165 154 149 131 129 119 111 68 64 57
192 186 189 194 196 195 193 197 196 195 180 157 143 128 126 128 115 120 113 103 100 99 93 86 76 73 68 70 70 70 63 52 43 39 34 36 32 30 21 13 12 358 8 22 9 10 10 5 8 6 2 357 359 359 351 347 331 296 241 202 187 187 180 150 142 154 166 147 168 178 191 196 176 166 161 151 157 158 133 136 149 139 124 89 68
192 188 189 195 192 182 179 178 172 147 128 131 126 120 119 118 116 112 106 100 99 89 88 85 78 71 75 77 75 71 65 54 45 42 39 38 35 29 21 19 16 19 20 13 12 13 10 10 5 3 357 359 4 0 353 352 344 311 244 210 167 173 155 142 148 162 153 162 180 174 175 169 187 142 148 156 156 144 112 86 68 50 74 70 76
186 185 190 187 171 142 128 123 122 120 118 111 105 113 113 105 108 102 96 99 91 94 86 86 84 80 77 75 72 67 62 52 48 48 47 43 37 29 28 21 22 23 19 12 5 5 6 5 1 360 357 359 0 358 359 354 350 330 276 211 131 116 121 124 158 156 142 162 181 185 174 167 161 149 163 160 144 133 110 97 89 85 77 72 55
193 182 175 158 154 151 142 130 126 117 109 109 113 114 106 102 96 98 97 93 96 91 91 89 84 77 72 69 75 71 65 59 57 55 53 45 40 33 25 9 15 16 13 9 13 11 5 359 352 353 358 359 350 2 3 359 354 346 313 192 124 121 107 97 88 105 130 138 138 170 161 155 150 140 158 151 141 131 115 112 109 104 89 73 61
170 152 146 141 138 131 129 122 116 115 117 117 118 114 109 107 100 99 99 98 94 91 90 88 82 75 72 71 77 80 74 69 66 63 54 45 38 28 22 12 20 13 8 9 3 356 340 349 353 356 355 355 351 3 5 1 359 355 335 333 89 93 98 112 104 86 84 160 127 167 165 132 117 125 150 148 145 132 116 122 122 117 107 95 85
109 104 117 123 119 113 116 117 111 104 112 120 121 116 110 103 103 103 99 95 93 93 91 86 85 80 79 79 79 85 86 78 70 66 63 53 42 33 25 6 17 4 12 359 352 355 357 358 359 358 356 358 355 1 6 5 3 3 352 340 47 97 114 107 102 90 99 128 92 192 150 116 131 151 151 137 141 129 119 126 129 126 117 106 97
133 140 130 122 120 119 116 111 113 113 119 119 117 112 104 102 101 99 97 97 96 100 96 96 93 89 86 85 86 87 87 85 79 69 68 62 46 36 358 356 11 16 14 347 6 0 354 357 358 360 4 7 359 3 6 6 5 5 6 355 52 133 112 98 113 120 100 119 77 162 125 134 176 167 139 135 148 134 126 142 140 129 119 118 127
116 95 110 115 118 113 111 117 118 122 124 118 111 102 101 105 103 102 99 101 107 109 108 102 95 88 89 83 88 91 87 88 88 81 68 63 48 38 20 24 17 21 10 3 0 3 1 350 347 0 360 9 2 3 3 6 7 4 5 0 337 128 127 128 136 139 129 89 106 116 117 69 343 142 128 139 160 139 123 136 135 134 128 135 154
120 122 123 116 113 112 117 119 120 123 121 115 108 102 100 103 108 103 106 116 120 113 101 95 92 89 87 88 87 95 96 88 94 97 88 64 43 45 28 30 25 10 14 12 12 6 1 348 341 1 356 2 4 6 0 7 8 4 3 1 348 330 135 137 145 142 126 129 131 112 112 127 169 128 106 115 117 132 143 136 126 134 158 143 152
71 83 100 105 96 93 89 84 86 106 112 113 107 101 106 110 106 109 125 129 113 103 98 94 93 91 93 94 97 92 90 97 96 87 75 57 24 35 32 28 21 17 17 13 2 2 353 347 332 2 15 357 358 9 4 3 8 4 1 1 339 316 192 132 126 113 116 127 154 136 141 123 124 136 119 109 103 107 122 109 126 155 131 130 127
92 69 41 78 101 95 93 93 89 88 104 116 108 107 111 112 109 128 133 116 103 99 98 99 98 97 98 97 93 96 95 96 83 75 76 55 26 32 26 25 24 18 15 7 5 355 356 350 344 349 6 5 1 356 8 2 1 1 356 358 345 332 278 175 134 137 148 148 106 119 125 135 147 127 113 108 103 98 87 112 132 136 133 119 107
99 101 98 75 70 80 83 77 77 89 103 116 113 113 116 114 122 141 114 103 98 99 101 99 100 101 101 95 95 92 89 82 83 75 62 51 29 23 28 23 17 20 11 9 1 355 355 351 347 345 353 1 3 0 358 0 357 353 355 353 349 340 14 282 104 137 148 151 143 145 160 146 122 108 100 89 88 96 118 129 116 108 111 122 121
120 119 114 110 107 96 77 51 32 31 42 76 112 119 120 120 138 128 118 110 107 104 102 103 104 105 100 107 94 86 78 69 56 58 58 37 27 20 17 4 21 16 16 12 1 358 358 344 343 345 348 352 358 356 348 351 351 350 351 354 347 345 3 359 111 129 146 141 134 119 118 115 104 101 98 89 77 76 89 105 105 109 119 128 117
103 101 103 104 100 100 96 83 47 11 7 37 72 114 121 133 128 117 116 112 109 104 102 103 98 95 103 107 94 75 64 55 47 44 54 51 38 17 12 8 19 10 8 16 1 3 355 350 337 341 347 351 352 348 347 347 348 347 347 352 346 340 358 360 124 120 99 99 98 95 101 99 101 106 96 90 88 81 88 106 107 118 125 123 110
116 122 121 117 117 111 108 104 88 38 3 356 54 69 99 114 117 120 116 110 106 104 99 93 92 97 95 92 88 76 61 42 32 30 34 35 25 20 16 14 12 4 2 6 6 357 358 360 351 341 342 348 352 349 343 340 342 343 346 347 346 342 358 74 92 91 94 95 97 99 100 102 98 102 99 100 94 81 48 54 69 85 106 108 101
111 116 113 110 111 113 111 107 102 90 34 344 7 84 100 109 115 121 114 105 100 97 98 97 94 93 84 80 75 67 66 48 34 35 28 19 19 17 14 17 2 353 350 356 352 2 1 4 354 343 342 342 349 351 347 342 338 340 339 341 329 321 351 112 105 92 97 105 105 102 94 86 93 85 76 61 62 61 59 48 60 69 89 113 109
117 117 116 116 116 113 119 119 118 115 103 12 329 59 106 114 120 118 110 101 99 95 96 89 87 84 79 77 73 67 62 55 36 27 23 35 46 11 10 355 4 72 304 321 360 15 2 353 357 349 353 345 345 346 342 328 322 320 323 321 316 308 124 100 123 119 101 96 97 95 102 94 86 97 80 81 79 77 55 37 47 69 89 106 109
107 109 111 111 115 121 123 118 115 113 103 101 309 72 103 116 118 113 107 105 104 96 88 84 83 86 85 76 69 59 54 52 47 33 18 356 4 31 31 35 332 358 13 346 150 16 352 348 354 348 346 347 341 329 322 327 329 330 332 327 284 255 165 118 129 122 117 114 116 121 107 107 117 102 100 91 83 88 86 69 36 62 98 103 110
125 117 112 112 114 113 114 115 116 110 108 122 186 141 115 105 104 106 106 108 106 98 92 86 84 78 81 82 75 65 53 54 47 40 21 9 342 360 19 12 7 355 6 21 349 334 360 357 355 340 341 331 320 322 331 333 335 338 340 349 26 159 121 122 122 103 93 115 129 118 110 95 99 107 122 124 108 106 119 119 98 99 100 114 116